Location: Peebles
(55.6412°N, 3.1714°W)
Time: 19:47:38
(UTC+01:00)

Envisat - Pass Details

Date: 29 February 2024
Orbit: 762 x 764 km, 98.3° (Epoch: 20 April)

Event Time Altitude Azimuth Distance (km) Brightness Sun altitude
Rises 04:15:18 0° 14° (NNE) 3,246 6.8 -24.3°
Reaches altitude 10° 04:17:37 10° 13° (NNE) 2,315 5.9 -24.0°
Maximum altitude 04:22:42 72° 290° (WNW) 808 2.9 -23.4°
Enters shadow 04:23:28 61° 235° (SW) 871 2.9 -23.3°
